This is the latest recevied weather packets stored in our database for station/object EA5GTE-12. If no packets are shown the sender has not sent any weather packets the latest 10 day(s).
| Time | Temp. | Humidity | Pressure | Rain* | Wind** | Luminosity | Snow |
|---|---|---|---|---|---|---|---|
| 1777879339 | 12.78° C | 100% | 936.5 hPa | - | - | - | - |
| 1777877547 | 13.89° C | 100% | 936.4 hPa | - | - | - | - |
| 1777876647 | 13.89° C | 100% | 936.2 hPa | - | - | - | - |
| 1777875747 | 14.44° C | 100% | 936.1 hPa | - | - | - | - |
| 1777874847 | 13.89° C | 100% | 936 hPa | - | - | - | - |
| 1777873947 | 13.89° C | 100% | 935.9 hPa | - | - | - | - |
| 1777873047 | 13.89° C | 100% | 936 hPa | - | - | - | - |
| 1777872147 | 13.89° C | 100% | 935.8 hPa | - | - | - | - |
| 1777871247 | 13.33° C | 100% | 935.7 hPa | - | - | - | - |
| 1777870347 | 13.33° C | 100% | 935.8 hPa | - | - | - | - |
| 1777869447 | 13.89° C | 100% | 935.8 hPa | - | - | - | - |
| 1777868547 | 13.89° C | 100% | 935.6 hPa | - | - | - | - |
| 1777867647 | 13.89° C | 100% | 935.6 hPa | - | - | - | - |
| 1777866745 | 13.33° C | 100% | 935.5 hPa | - | - | - | - |
| 1777865845 | 13.89° C | 100% | 935.8 hPa | - | - | - | - |
| 1777864945 | 13.89° C | 100% | 935.9 hPa | - | - | - | - |
| 1777864045 | 13.89° C | 100% | 935.9 hPa | - | - | - | - |
| 1777863145 | 14.44° C | 100% | 936 hPa | - | - | - | - |
| 1777862245 | 13.89° C | 100% | 935.9 hPa | - | - | - | - |
| 1777861345 | 13.89° C | 100% | 935.9 hPa | - | - | - | - |
| 1777860443 | 13.89° C | 100% | 936.1 hPa | - | - | - | - |
| 1777859542 | 13.89° C | 100% | 935.9 hPa | - | - | - | - |
| 1777858641 | 13.89° C | 100% | 936 hPa | - | - | - | - |
| 1777857738 | 13.89° C | 100% | 936 hPa | - | - | - | - |
| 1777855938 | 13.89° C | 100% | 936.1 hPa | - | - | - | - |
* Rain since midnight (hover to see other rain measurements)
** Current wind speed in m/s (hover to see current wind gust speed)